• In Uzbekistan
  • List of Countries
  • For 7 days
  • Water Temperature
  • Satellite Maps
  • Weather Map
  • Weather Widgets
  • user-avatar
    Login

    Hourly Weather Bregenz

    Today, 22 August, Tuesday

    Time Temperature Precipitation Wind Pressure Humidity
    00:00 +7°C° 0 mm 1 mps 650 mmHg 85%
    01:00 +7°C° 0 mm 2 mps 650 mmHg 83%
    02:00 +8°C° 0 mm 1 mps 649 mmHg 84%
    03:00 +7°C° 0 mm 1 mps 649 mmHg 84%
    04:00 +7°C° 0 mm 1 mps 649 mmHg 85%
    05:00 +8°C° 0 mm 1 mps 649 mmHg 82%
    06:00 +9°C° 0 mm 1 mps 650 mmHg 79%
    07:00 +11°C° 0 mm 1 mps 650 mmHg 73%
    08:00 +13°C° 0 mm 1 mps 651 mmHg 67%
    09:00 +15°C° 0 mm 1 mps 651 mmHg 62%
    10:00 +18°C° 0 mm 1 mps 651 mmHg 56%
    11:00 +19°C° 0 mm 1 mps 651 mmHg 54%
    12:00 +20°C° 0 mm 1 mps 651 mmHg 52%
    13:00 +21°C° 0 mm 1 mps 651 mmHg 51%
    14:00 +19°C° 0 mm 2 mps 651 mmHg 52%
    15:00 +19°C° 0 mm 2 mps 651 mmHg 54%
    16:00 +19°C° 0 mm 2 mps 651 mmHg 55%
    17:00 +17°C° 0 mm 2 mps 650 mmHg 65%
    18:00 +15°C° 0 mm 1 mps 650 mmHg 75%
    19:00 +13°C° 0 mm 1 mps 649 mmHg 85%
    20:00 +12°C° 0 mm 1 mps 649 mmHg 87%
    21:00 +11°C° 0 mm 1 mps 649 mmHg 89%
    22:00 +10°C° 0 mm 1 mps 649 mmHg 92%
    23:00 +10°C° 0 mm 1 mps 648 mmHg 89%

    Tomorrow, 23 August, Wednesday

    Time Temperature Precipitation Wind Pressure Humidity
    00:00 +10°C° 0 mm 1 mps 648 mmHg 87%
    01:00 +10°C° 0 mm 1 mps 648 mmHg 84%
    02:00 +10°C° 0 mm 1 mps 648 mmHg 82%
    03:00 +10°C° 0 mm 1 mps 648 mmHg 79%
    04:00 +10°C° 0 mm 1 mps 648 mmHg 76%
    05:00 +11°C° 0 mm 1 mps 648 mmHg 75%
    06:00 +11°C° 0 mm 1 mps 648 mmHg 73%
    07:00 +12°C° 0 mm 1 mps 649 mmHg 71%
    08:00 +15°C° 0 mm 1 mps 649 mmHg 63%
    09:00 +18°C° 0 mm 1 mps 650 mmHg 55%
    10:00 +21°C° 0 mm 1 mps 651 mmHg 47%
    11:00 +22°C° 0 mm 1 mps 651 mmHg 45%
    12:00 +23°C° 0 mm 1 mps 651 mmHg 42%
    13:00 +24°C° 0 mm 1 mps 651 mmHg 40%
    14:00 +24°C° 0 mm 1 mps 651 mmHg 41%
    15:00 +24°C° 0 mm 1 mps 651 mmHg 43%
    16:00 +24°C° 0 mm 1 mps 651 mmHg 44%
    17:00 +21°C° 0 mm 1 mps 650 mmHg 53%
    18:00 +19°C° 0 mm 1 mps 650 mmHg 62%
    19:00 +16°C° 0 mm 1 mps 649 mmHg 71%
    20:00 +15°C° 0.5 mm 1 mps 649 mmHg 72%
    21:00 +14°C° 0.5 mm 1 mps 649 mmHg 74%
    22:00 +13°C° 0.5 mm 2 mps 649 mmHg 75%
    23:00 +13°C° 0 mm 2 mps 649 mmHg 74%

    Day after tomorrow, 24 August, Thursday

    Time Temperature Precipitation Wind Pressure Humidity
    00:00 +13°C° 0 mm 2 mps 649 mmHg 73%
    01:00 +13°C° 0 mm 2 mps 649 mmHg 72%
    02:00 +12°C° 0 mm 2 mps 649 mmHg 72%
    03:00 +12°C° 0 mm 2 mps 649 mmHg 72%
    04:00 +12°C° 0 mm 2 mps 649 mmHg 71%
    05:00 +13°C° 0 mm 2 mps 649 mmHg 72%
    06:00 +13°C° 0 mm 2 mps 649 mmHg 72%
    07:00 +14°C° 0 mm 1 mps 650 mmHg 72%
    08:00 +16°C° 0 mm 1 mps 650 mmHg 66%
    09:00 +20°C° 0 mm 1 mps 651 mmHg 59%
    10:00 +22°C° 0 mm 1 mps 652 mmHg 53%
    11:00 +23°C° 0.1 mm 1 mps 652 mmHg 51%
    12:00 +23°C° 0.1 mm 1 mps 652 mmHg 49%
    13:00 +24°C° 0.1 mm 2 mps 652 mmHg 47%
    14:00 +24°C° 0.4 mm 1 mps 651 mmHg 52%
    15:00 +23°C° 0.4 mm 1 mps 651 mmHg 57%
    16:00 +22°C° 0.4 mm 1 mps 651 mmHg 62%
    17:00 +21°C° 0.4 mm 1 mps 651 mmHg 68%
    18:00 +19°C° 0.4 mm 1 mps 651 mmHg 75%
    19:00 +16°C° 0.4 mm 1 mps 650 mmHg 81%
    20:00 +15°C° 0.2 mm 1 mps 650 mmHg 81%
    21:00 +15°C° 0.2 mm 1 mps 650 mmHg 82%
    22:00 +14°C° 0.2 mm 2 mps 650 mmHg 82%
    23:00 +14°C° 0.2 mm 2 mps 650 mmHg 81%

    25 August, Friday

    Time Temperature Precipitation Wind Pressure Humidity
    00:00 +13°C° 0.2 mm 2 mps 650 mmHg 81%
    01:00 +13°C° 0.2 mm 2 mps 650 mmHg 80%
    02:00 +13°C° 0 mm 2 mps 650 mmHg 79%
    03:00 +13°C° 0 mm 2 mps 649 mmHg 79%
    04:00 +13°C° 0 mm 2 mps 649 mmHg 79%
    05:00 +13°C° 0.1 mm 2 mps 650 mmHg 78%
    06:00 +14°C° 0.1 mm 2 mps 650 mmHg 77%
    07:00 +15°C° 0.1 mm 1 mps 650 mmHg 77%
    08:00 +18°C° 0 mm 1 mps 651 mmHg 68%
    09:00 +21°C° 0 mm 1 mps 651 mmHg 59%
    10:00 +23°C° 0 mm 1 mps 652 mmHg 51%
    11:00 +24°C° 0 mm 1 mps 652 mmHg 48%
    12:00 +25°C° 0 mm 1 mps 652 mmHg 45%
    13:00 +26°C° 0 mm 1 mps 652 mmHg 42%
    14:00 +26°C° 0.1 mm 1 mps 652 mmHg 45%
    15:00 +25°C° 0.1 mm 2 mps 652 mmHg 48%
    16:00 +24°C° 0.1 mm 2 mps 651 mmHg 52%
    17:00 +23°C° 0.1 mm 1 mps 651 mmHg 60%
    18:00 +21°C° 0.1 mm 1 mps 651 mmHg 69%
    19:00 +19°C° 0.1 mm 1 mps 650 mmHg 78%
    20:00 +18°C° 0.1 mm 1 mps 650 mmHg 78%
    21:00 +16°C° 0.1 mm 1 mps 650 mmHg 79%
    22:00 +16°C° 0.1 mm 2 mps 650 mmHg 79%
    23:00 +15°C° 0 mm 2 mps 650 mmHg 78%

    26 August, Saturday

    Time Temperature Precipitation Wind Pressure Humidity
    00:00 +15°C° 0 mm 2 mps 650 mmHg 78%
    01:00 +15°C° 0 mm 2 mps 650 mmHg 77%
    02:00 +15°C° 0 mm 2 mps 649 mmHg 76%
    03:00 +15°C° 0 mm 2 mps 649 mmHg 75%
    04:00 +15°C° 0 mm 2 mps 649 mmHg 74%
    05:00 +15°C° 0 mm 2 mps 649 mmHg 74%
    06:00 +15°C° 0 mm 2 mps 649 mmHg 75%
    07:00 +16°C° 0 mm 2 mps 650 mmHg 75%
    08:00 +19°C° 0 mm 1 mps 650 mmHg 67%
    09:00 +22°C° 0 mm 1 mps 651 mmHg 59%
    10:00 +24°C° 0 mm 1 mps 651 mmHg 51%
    11:00 +25°C° 0 mm 1 mps 651 mmHg 48%
    12:00 +26°C° 0 mm 1 mps 651 mmHg 46%
    13:00 +27°C° 0 mm 1 mps 651 mmHg 44%
    14:00 +26°C° 0.1 mm 1 mps 651 mmHg 46%
    15:00 +26°C° 0.1 mm 1 mps 651 mmHg 48%
    16:00 +26°C° 0.1 mm 1 mps 651 mmHg 51%
    17:00 +24°C° 0.1 mm 1 mps 650 mmHg 58%
    18:00 +22°C° 0.1 mm 1 mps 650 mmHg 65%
    19:00 +20°C° 0.1 mm 1 mps 649 mmHg 72%
    20:00 +19°C° 0 mm 1 mps 649 mmHg 72%
    21:00 +18°C° 0 mm 1 mps 649 mmHg 71%
    22:00 +16°C° 0 mm 2 mps 649 mmHg 71%
    23:00 +16°C° 0 mm 2 mps 649 mmHg 71%

    27 August, Sunday

    Time Temperature Precipitation Wind Pressure Humidity
    00:00 +16°C° 0 mm 2 mps 649 mmHg 71%
    01:00 +15°C° 0 mm 2 mps 649 mmHg 71%
    02:00 +15°C° 0 mm 2 mps 648 mmHg 70%
    03:00 +15°C° 0 mm 2 mps 648 mmHg 70%
    04:00 +15°C° 0 mm 2 mps 648 mmHg 70%
    05:00 +15°C° 0 mm 2 mps 649 mmHg 71%
    06:00 +15°C° 0 mm 2 mps 649 mmHg 72%
    07:00 +16°C° 0 mm 2 mps 649 mmHg 72%
    08:00 +19°C° 0 mm 1 mps 650 mmHg 65%
    09:00 +21°C° 0 mm 1 mps 650 mmHg 58%
    10:00 +24°C° 0 mm 1 mps 651 mmHg 51%
    11:00 +24°C° 0.1 mm 1 mps 651 mmHg 49%
    12:00 +25°C° 0.1 mm 1 mps 651 mmHg 46%
    13:00 +26°C° 0.1 mm 1 mps 651 mmHg 44%
    14:00 +26°C° 0.2 mm 2 mps 651 mmHg 46%
    15:00 +25°C° 0.2 mm 2 mps 650 mmHg 49%
    16:00 +25°C° 0.2 mm 2 mps 650 mmHg 51%
    17:00 +23°C° 0.6 mm 1 mps 650 mmHg 59%
    18:00 +21°C° 0.6 mm 1 mps 649 mmHg 68%
    19:00 +17°C° 0.6 mm 0 mps 649 mmHg 77%
    20:00 +18°C° 0.2 mm 1 mps 649 mmHg 79%
    21:00 +16°C° 0.2 mm 1 mps 649 mmHg 80%
    22:00 +15°C° 0.2 mm 2 mps 649 mmHg 82%
    23:00 +15°C° 0.1 mm 2 mps 649 mmHg 82%
    Show more